Fond du Lac, WI

2:30 PM CST on December 10, 2016 (GMT -0600)
Fond du Lac County

Weather History for KFLD - April, 2013

Change the Weather History Date:

Friday, April 5, 2013

  Actual Average Record
Temperature  
Mean Temperature 34 °F -  
Max Temperature 42 °F 48 °F 77 °F (1991)
Min Temperature 28 °F 30 °F 14 °F (1979)
Degree Days  
Heating Degree Days 30    
Moisture  
Dew Point 22 °F    
Average Humidity 61    
Maximum Humidity 81    
Minimum Humidity 43    
Precipitation  
Precipitation 0.00 in - - ()
Sea Level Pressure  
Sea Level Pressure 30.20 in    
Wind  
Wind Speed 7 mph (NE)    
Max Wind Speed 13 mph    
Max Gust Speed -    
Visibility 9 miles    
Events Snow    
Averages and records for this station are not official NWS values.
T = Trace of Precipitation, MM = Missing Value Source: NWS Daily Summary

Daily Weather History Graph

Daily Weather History Graph

Search for Another Location

Airport or City:

Trip Planner

Search our weather history database for the weather conditions in past years. The results will help you decide how hot, cold, wet, or windy it might be!

Date:

Astronomy

Apr. 05, 2013 Rise Set
Actual Time 6:27 AM CDT 7:25 PM CDT
Civil Twilight 5:58 AM CDT 7:55 PM CDT
Nautical Twilight 5:23 AM CDT 8:30 PM CDT
Astronomical Twilight 4:47 AM CDT 9:06 PM CDT
Moon 3:44 AM CDT (4/5) 2:41 PM CDT (4/5)
Length of Visible Light 13h 56m
Length of Day
12h 58m
Waning Crescent, 23% of the Moon is Illuminated
Apr 5
Waning Crescent
Apr 10
New
Apr 18
First Quarter
Apr 25
Full
May 2
Last Quarter

Hourly Weather History & Observations

Time (CDT) Temp. Windchill Dew Point Humidity Pressure Visibility Wind Dir Wind Speed Gust Speed Precip Events Conditions
12:53 AM 36.0 °F 29.0 °F 24.1 °F 62% 30.09 in 10.0 mi North 9.2 mph - N/A   Clear
1:53 AM 34.0 °F 28.8 °F 24.1 °F 67% 30.10 in 10.0 mi North 5.8 mph - N/A   Clear
2:53 AM 33.1 °F - 24.1 °F 70% 30.11 in 10.0 mi Calm Calm - N/A   Clear
3:53 AM 30.0 °F - 24.1 °F 79% 30.13 in 10.0 mi Calm Calm - N/A   Clear
4:53 AM 28.0 °F - 23.0 °F 81% 30.16 in 10.0 mi Calm Calm - N/A   Clear
5:53 AM 28.0 °F 22.8 °F 23.0 °F 81% 30.19 in 10.0 mi North 4.6 mph - N/A   Clear
6:53 AM 30.0 °F 23.2 °F 21.0 °F 69% 30.22 in 10.0 mi North 6.9 mph - N/A   Clear
7:53 AM 32.0 °F 22.5 °F 23.0 °F 69% 30.24 in 10.0 mi NNE 12.7 mph - N/A   Clear
8:53 AM 34.0 °F 26.0 °F 23.0 °F 64% 30.26 in 10.0 mi NNE 10.4 mph - N/A   Clear
9:53 AM 36.0 °F 29.0 °F 21.9 °F 57% 30.27 in 10.0 mi NNE 9.2 mph - N/A   Clear
10:53 AM 37.0 °F 29.8 °F 21.0 °F 52% 30.28 in 10.0 mi North 10.4 mph - N/A   Clear
11:53 AM 39.0 °F 33.4 °F 21.9 °F 50% 30.27 in 10.0 mi NNE 8.1 mph - N/A   Clear
12:53 PM 39.0 °F 34.0 °F 21.0 °F 49% 30.25 in 10.0 mi North 6.9 mph - N/A   Clear
1:53 PM 41.0 °F 35.8 °F 19.9 °F 43% 30.24 in 10.0 mi NNE 8.1 mph - N/A   Clear
2:53 PM 41.0 °F 35.8 °F 21.9 °F 47% 30.22 in 10.0 mi NNE 8.1 mph - N/A   Clear
3:53 PM 41.0 °F 39.0 °F 19.9 °F 43% 30.22 in 10.0 mi NE 3.5 mph - N/A   Clear
4:53 PM 39.9 °F 33.9 °F 21.0 °F 47% 30.22 in 10.0 mi NNE 9.2 mph - N/A   Clear
5:53 PM 39.0 °F 33.4 °F 19.9 °F 46% 30.22 in 10.0 mi NNE 8.1 mph - N/A   Mostly Cloudy
6:53 PM 36.0 °F 29.6 °F 21.0 °F 55% 30.21 in 10.0 mi NE 8.1 mph - N/A   Overcast
7:53 PM 35.1 °F 27.9 °F 23.0 °F 61% 30.20 in 10.0 mi ESE 9.2 mph - N/A   Overcast
8:53 PM 34.0 °F 25.5 °F 23.0 °F 64% 30.20 in 10.0 mi SE 11.5 mph - N/A   Overcast
9:53 PM 34.0 °F 26.0 °F 21.9 °F 61% 30.19 in 10.0 mi ESE 10.4 mph - N/A   Overcast
10:53 PM 34.0 °F 27.2 °F 21.0 °F 59% 30.18 in 10.0 mi ESE 8.1 mph - N/A   Overcast
11:46 PM 32.0 °F 24.8 °F 24.8 °F 75% 30.17 in 2.5 mi ESE 8.1 mph - 0.00 in Snow Light Snow
11:53 PM 32.0 °F 23.6 °F 26.1 °F 79% 30.19 in 1.8 mi ESE 10.4 mph - 0.00 in Snow Light Snow